Overview Statistics Trail Chart Weather Telemetry Raw packets
 

This is the latest recevied weather packets stored in our database for station/object K7DC. If no packets are shown the sender has not sent any weather packets the latest 10 day(s).

<< 11 12 13 14 15 16 17 >>
Time Temp. Humidity Pressure Rain* Wind** Luminosity Snow
1788560432 37.22° C 30% 1013.7 hPa 0 mm - 297 W/m² -
1788560127 37.78° C 30% 1013.9 hPa 0 mm - 717 W/m² -
1788559827 36.67° C 30% 1014 hPa 0 mm - 708 W/m² -
1788559526 36.11° C 31% 1013.9 hPa 0 mm - 750 W/m² -
1788559223 36.11° C 31% 1014.2 hPa 0 mm - 187 W/m² -
1788558922 36.11° C 31% 1014.2 hPa 0 mm - 154 W/m² -
1788558618 36.11° C 31% 1014.2 hPa 0 mm - 146 W/m² -
1788558313 36.67° C 31% 1014 hPa 0 mm - 139 W/m² -
1788558009 37.78° C 28% 1014.2 hPa 0 mm - 640 W/m² -
1788557706 38.89° C 28% 1014.2 hPa 0 mm - 177 W/m² -
1788557404 38.89° C 27% 1014.4 hPa 0 mm - 373 W/m² -
1788557102 38.33° C 28% 1014.5 hPa 0 mm - 787 W/m² -
1788556798 38.33° C 29% 1014.5 hPa 0 mm - 793 W/m² -
1788556492 38.89° C 28% 1014.4 hPa 0 mm - 787 W/m² -
1788556188 38.89° C 27% 1014.5 hPa 0 mm - 795 W/m² -
1788555887 38.89° C 27% 1014.6 hPa 0 mm - 793 W/m² -
1788555583 38.89° C 27% 1014.8 hPa 0 mm - 808 W/m² -
1788555278 38.33° C 28% 1014.5 hPa 0 mm - 825 W/m² -
1788554975 38.89° C 28% 1014.6 hPa 0 mm - 841 W/m² -
1788554670 38.89° C 28% 1014.8 hPa 0 mm - 843 W/m² -
1788554367 38.89° C 27% 1014.8 hPa 0 mm - 870 W/m² -
1788554063 38.89° C 28% 1015 hPa 0 mm - 868 W/m² -
1788553759 38.33° C 28% 1015.1 hPa 0 mm - 885 W/m² -
1788553454 37.22° C 28% 1015 hPa 0 mm - 914 W/m² -
1788553150 37.22° C 30% 1015 hPa 0 mm - 799 W/m² -

* Rain latest hour (hover to see other rain measurements)
** Current wind speed in m/s (hover to see current wind gust speed)